Weather History for Bentonville, AR

Change the Weather History Date:

Friday, July 26, 2013

  Actual Average Record
Temperature  
Mean Temperature 70 °F -  
Max Temperature 73 °F 90 °F 101 °F (1977)
Min Temperature 66 °F 67 °F 57 °F (1991)
Cooling Degree Days 4    
Growing Degree Days 20 (Base 50)    
Moisture  
Dew Point 66 °F    
Average Humidity 85    
Maximum Humidity 88    
Minimum Humidity 78    
Precipitation  
Precipitation 0.33 in - - ()
Sea Level Pressure  
Sea Level Pressure 30.04 in    
Wind  
Wind Speed 4 mph (SE)    
Max Wind Speed 10 mph    
Max Gust Speed -    
Visibility 9 miles    
Events      
Averages and records for this station are not official NWS values.
T = Trace of Precipitation, MM = Missing Value Source: NWS Daily Summary

Daily Weather History Graph

Daily Weather History Graph

Search for Another Location

Airport:

Trip Planner

Search our weather history database for the weather conditions in past years. The results will help you decide how hot, cold, wet, or windy it might be!

Date:

Astronomy

Jul. 26, 2013 Rise Set
Actual Time 6:19 AM CDT 8:27 PM CDT
Civil Twilight 5:50 AM CDT 8:56 PM CDT
Nautical Twilight 5:14 AM CDT 9:31 PM CDT
Astronomical Twilight 4:36 AM CDT 10:09 PM CDT
Moon 10:52 PM CDT (7/26) 10:46 AM CDT (7/26)
Length of Visible Light 15h 05m
Length of Day
14h 08m
Waning Gibbous, 80% of the Moon is Illuminated
Jul 26
Waning Gibbous
Jul 29
Last Quarter
Aug 6
New
Aug 14
First Quarter
Aug 20
Full

Hourly Weather History & Observations

Time (CDT) Temp. Dew Point Humidity Pressure Visibility Wind Dir Wind Speed Gust Speed Precip Events Conditions
12:15 AM 73.4 °F 68.0 °F 83% 30.07 in 10.0 mi SE 3.5 mph - N/A   Clear
12:55 AM 71.6 °F 66.2 °F 83% 30.06 in 10.0 mi SE 6.9 mph - N/A   Clear
1:15 AM 71.6 °F 66.2 °F 83% 30.06 in 10.0 mi SSE 4.6 mph - N/A   Clear
1:35 AM 71.6 °F 68.0 °F 88% 30.06 in 10.0 mi SE 4.6 mph - N/A   Clear
1:55 AM 71.6 °F 66.2 °F 83% 30.05 in 10.0 mi SSE 6.9 mph - N/A   Clear
2:55 AM 71.6 °F 66.2 °F 83% 30.04 in 10.0 mi SSE 4.6 mph - N/A   Clear
3:15 AM 71.6 °F 66.2 °F 83% 30.04 in 10.0 mi SSE 4.6 mph - N/A   Partly Cloudy
4:15 AM 71.6 °F 64.4 °F 78% 30.03 in 10.0 mi SSE 5.8 mph - N/A   Overcast
4:36 AM 71.6 °F 64.4 °F 78% 30.03 in 10.0 mi SE 5.8 mph - N/A   Overcast
4:55 AM 71.6 °F 64.4 °F 78% 30.04 in 10.0 mi SSE 3.5 mph - N/A   Overcast
5:15 AM 71.6 °F 66.2 °F 83% 30.04 in 10.0 mi SE 4.6 mph - N/A   Overcast
5:35 AM 71.6 °F 64.4 °F 78% 30.04 in 10.0 mi SE 4.6 mph - N/A   Overcast
5:55 AM 71.6 °F 64.4 °F 78% 30.03 in 10.0 mi SE 5.8 mph - N/A   Overcast
6:15 AM 71.6 °F 64.4 °F 78% 30.04 in 10.0 mi Calm Calm - N/A   Overcast
6:35 AM 71.6 °F 66.2 °F 83% 30.04 in 10.0 mi SSE 4.6 mph - N/A   Mostly Cloudy
6:55 AM 71.6 °F 66.2 °F 83% 30.03 in 10.0 mi South 3.5 mph - N/A   Scattered Clouds
7:15 AM 71.6 °F 66.2 °F 83% 30.03 in 10.0 mi South 3.5 mph - 0.01 in   Partly Cloudy
7:36 AM 71.6 °F 66.2 °F 83% 30.04 in 5.0 mi South 3.5 mph - 0.02 in   Mostly Cloudy
7:55 AM 71.6 °F 66.2 °F 83% 30.05 in 7.0 mi Calm Calm - 0.04 in   Overcast
8:15 AM 71.6 °F 68.0 °F 88% 30.05 in 7.0 mi Calm Calm - 0.02 in   Overcast
8:35 AM 71.6 °F 68.0 °F 88% 30.06 in 7.0 mi SSW 5.8 mph - 0.03 in   Mostly Cloudy
8:55 AM 71.6 °F 68.0 °F 88% 30.06 in 7.0 mi WSW 3.5 mph - 0.04 in   Scattered Clouds
9:15 AM 71.6 °F 68.0 °F 88% 30.06 in 7.0 mi SW 6.9 mph - 0.01 in   Mostly Cloudy
9:35 AM 71.6 °F 68.0 °F 88% 30.06 in 8.0 mi SSW 6.9 mph - 0.01 in   Mostly Cloudy
9:56 AM 71.6 °F 68.0 °F 88% 30.05 in 8.0 mi SSW 4.6 mph - N/A   Partly Cloudy
10:15 AM 71.6 °F 68.0 °F 88% 30.05 in 7.0 mi South 5.8 mph - N/A   Clear
10:35 AM 71.6 °F 68.0 °F 88% 30.06 in 7.0 mi South 5.8 mph - N/A   Scattered Clouds
10:55 AM 71.6 °F 66.2 °F 83% 30.07 in 5.0 mi South 9.2 mph - N/A   Mostly Cloudy
11:15 AM 69.8 °F 66.2 °F 88% 30.06 in 2.5 mi South 4.6 mph - N/A   Overcast
11:35 AM 69.8 °F 66.2 °F 88% 30.07 in 8.0 mi SSE 3.5 mph - N/A   Overcast
11:55 AM 69.8 °F 66.2 °F 88% 30.06 in 5.0 mi SE 4.6 mph - N/A   Overcast
12:15 PM 71.6 °F 68.0 °F 88% 30.06 in 5.0 mi SSE 4.6 mph - N/A   Overcast
12:35 PM 71.6 °F 68.0 °F 88% 30.06 in 7.0 mi SSE 6.9 mph - N/A   Overcast
12:55 PM 71.6 °F 68.0 °F 88% 30.06 in 10.0 mi South 6.9 mph - 0.02 in   Overcast
1:16 PM 71.6 °F 66.2 °F 83% 30.05 in 9.0 mi South 6.9 mph - 0.01 in   Overcast
1:35 PM 71.6 °F 68.0 °F 88% 30.04 in 9.0 mi SSE 6.9 mph - 0.02 in   Mostly Cloudy
1:55 PM 71.6 °F 68.0 °F 88% 30.03 in 10.0 mi SSE 8.1 mph - 0.02 in   Scattered Clouds
2:15 PM 71.6 °F 66.2 °F 83% 30.04 in 10.0 mi SE 10.4 mph - N/A   Mostly Cloudy
2:35 PM 71.6 °F 66.2 °F 83% 30.04 in 10.0 mi SSE 4.6 mph - N/A   Overcast
2:55 PM 71.6 °F 68.0 °F 88% 30.04 in 10.0 mi East 3.5 mph - N/A   Mostly Cloudy
3:15 PM 71.6 °F 68.0 °F 88% 30.04 in 9.0 mi SSE 3.5 mph - 0.02 in   Mostly Cloudy
3:35 PM 71.6 °F 68.0 °F 88% 30.04 in 5.0 mi Calm Calm - 0.06 in   Mostly Cloudy
3:55 PM 71.6 °F 68.0 °F 88% 30.03 in 6.0 mi SSE 5.8 mph - 0.10 in   Overcast
4:15 PM 71.6 °F 66.2 °F 83% 30.03 in 5.0 mi SE 5.8 mph - 0.04 in   Overcast
4:35 PM 71.6 °F 68.0 °F 88% 30.02 in 7.0 mi East 3.5 mph - 0.06 in   Mostly Cloudy
4:55 PM 71.6 °F 68.0 °F 88% 30.03 in 8.0 mi East 5.8 mph - 0.09 in   Mostly Cloudy
5:15 PM 71.6 °F 68.0 °F 88% 30.02 in 9.0 mi ENE 4.6 mph - 0.01 in   Mostly Cloudy
5:36 PM 71.6 °F 66.2 °F 83% 30.03 in 10.0 mi East 3.5 mph - 0.01 in   Overcast
5:55 PM 71.6 °F 68.0 °F 88% 30.03 in 10.0 mi East 4.6 mph - 0.01 in   Overcast
6:15 PM 71.6 °F 66.2 °F 83% 30.03 in 10.0 mi East 3.5 mph - N/A   Overcast
6:35 PM 73.4 °F 68.0 °F 83% 30.02 in 10.0 mi ESE 3.5 mph - N/A   Overcast
6:55 PM 73.4 °F 68.0 °F 83% 30.02 in 10.0 mi East 3.5 mph - N/A   Overcast
7:15 PM 71.6 °F 68.0 °F 88% 30.02 in 10.0 mi Calm Calm - N/A   Overcast
7:35 PM 71.6 °F 68.0 °F 88% 30.02 in 10.0 mi Calm Calm - N/A   Overcast
7:55 PM 71.6 °F 66.2 °F 83% 30.02 in 10.0 mi East 3.5 mph - N/A   Overcast
8:15 PM 71.6 °F 66.2 °F 83% 30.02 in 9.0 mi Calm Calm - N/A   Overcast
8:35 PM 71.6 °F 66.2 °F 83% 30.01 in 10.0 mi Calm Calm - N/A   Overcast
8:55 PM 71.6 °F 66.2 °F 83% 30.01 in 10.0 mi Calm Calm - N/A   Mostly Cloudy
9:15 PM 71.6 °F 66.2 °F 83% 30.01 in 10.0 mi East 4.6 mph - N/A   Mostly Cloudy
9:35 PM 69.8 °F 64.4 °F 83% 30.02 in 10.0 mi ESE 4.6 mph - N/A   Overcast
9:55 PM 69.8 °F 64.4 °F 83% 30.02 in 10.0 mi ESE 3.5 mph - N/A   Overcast
10:15 PM 69.8 °F 64.4 °F 83% 30.03 in 10.0 mi ESE 3.5 mph - N/A   Mostly Cloudy
10:35 PM 68.0 °F 64.4 °F 88% 30.04 in 10.0 mi Calm Calm - N/A   Mostly Cloudy
10:55 PM 68.0 °F 64.4 °F 88% 30.03 in 10.0 mi South 4.6 mph - N/A   Partly Cloudy
11:16 PM 66.2 °F 62.6 °F 88% 30.03 in 10.0 mi Calm Calm - N/A   Clear
11:35 PM 66.2 °F 62.6 °F 88% 30.04 in 10.0 mi Calm Calm - N/A   Clear
11:55 PM 66.2 °F 62.6 °F 88% 30.05 in 9.0 mi Calm Calm - N/A   Clear